User: anonymous   Login
Location: Unspecified
(0.0000°N, 0.0000°E)
Time: 00:03:51
(UTC+00:00)
Language:

Terriers - Orbit

View from above orbital plane
View from above orbital plane
View from above satellite
View from above satellite

Ground track
Ground track

The orbit data is extracted from the following two-line orbital elements,

1 25735U 99026A   17264.90898168 +.00002008 +00000-0 +43360-4 0  9997
2 25735 097.1916 069.7373 0005532 037.7762 322.3875 15.45722248021170
Epoch (UTC): 21 September 2017 21:48:56
Eccentricity: 0.0005532
inclination: 97.1916°
perigee height: 425 km
apogee height: 433 km
right ascension of ascending node: 69.7373°
argument of perigee: 37.7762°
revolutions per day: 15.45722248
mean anomaly at epoch: 322.3875°
orbit number at epoch: 2117

The dashed part of the orbit path shows where the satellite is in the earth's shadow,  

DLR